Weather History for Olathe, KS

Change the Weather History Date:

Tuesday, September 10, 2013

  Actual Average Record
Temperature  
Mean Temperature 81 °F 71 °F  
Max Temperature 93 °F 81 °F 96 °F (1953)
Min Temperature 69 °F 61 °F 43 °F (1962)
Degree Days  
Heating Degree Days 0 1  
Month to date heating degree days 0 1  
Since 1 July heating degree days 0 2  
Cooling Degree Days 16 6  
Month to date cooling degree days 130 78  
Year to date cooling degree days 1243 1243  
Growing Degree Days 32 (Base 50)    
Moisture  
Dew Point 63 °F    
Average Humidity 58    
Maximum Humidity 79    
Minimum Humidity 36    
Precipitation  
Precipitation 0.00 in 0.17 in 2.64 in (2010)
Month to date precipitation 0.78 1.97  
Year to date precipitation 27.29 29.93  
Sea Level Pressure  
Sea Level Pressure 30.00 in    
Wind  
Wind Speed 8 mph (SSW)    
Max Wind Speed 21 mph    
Max Gust Speed 26 mph    
Visibility 10 miles    
Events      
T = Trace of Precipitation, MM = Missing Value Source: NWS Daily Summary

Daily Weather History Graph

Daily Weather History Graph

Search for Another Location

Airport:

Trip Planner

Search our weather history database for the weather conditions in past years. The results will help you decide how hot, cold, wet, or windy it might be!

Date:

Astronomy

Sep. 10, 2013 Rise Set
Actual Time 6:56 AM CDT 7:34 PM CDT
Civil Twilight 6:29 AM CDT 8:01 PM CDT
Nautical Twilight 5:57 AM CDT 8:33 PM CDT
Astronomical Twilight 5:24 AM CDT 9:05 PM CDT
Moon 12:19 PM CDT (9/10) 10:42 PM CDT (9/10)
Length of Visible Light 13h 32m
Length of Day
12h 38m
Waxing Crescent, 28% of the Moon is Illuminated
Sep 10
Waxing Crescent
Sep 12
First Quarter
Sep 19
Full
Sep 26
Last Quarter
Oct 4
New

Hourly Weather History & Observations

Time (CDT) Temp. Heat Index Dew Point Humidity Pressure Visibility Wind Dir Wind Speed Gust Speed Precip Events Conditions
12:53 AM 73.0 °F - 63.0 °F 71% 29.93 in 10.0 mi South 4.6 mph - N/A   Clear
1:53 AM 72.0 °F - 63.0 °F 73% 29.94 in 10.0 mi SSW 3.5 mph - N/A   Clear
2:53 AM 72.0 °F - 62.1 °F 71% 29.95 in 10.0 mi South 4.6 mph - N/A   Clear
3:53 AM 71.1 °F - 63.0 °F 75% 29.95 in 10.0 mi South 4.6 mph - N/A   Clear
4:53 AM 71.1 °F - 63.0 °F 75% 29.96 in 10.0 mi South 5.8 mph - N/A   Clear
5:53 AM 70.0 °F - 63.0 °F 78% 29.97 in 10.0 mi South 5.8 mph - N/A   Clear
6:53 AM 70.0 °F - 63.0 °F 78% 29.99 in 10.0 mi South 5.8 mph - N/A   Clear
7:53 AM 72.0 °F - 64.0 °F 76% 30.01 in 9.0 mi South 5.8 mph - N/A   Clear
8:53 AM 77.0 °F - 64.0 °F 64% 30.02 in 10.0 mi SSW 10.4 mph - N/A   Clear
9:53 AM 81.0 °F 82.7 °F 64.9 °F 58% 30.04 in 10.0 mi SSW 11.5 mph 18.4 mph N/A   Clear
10:53 AM 84.9 °F 86.6 °F 64.9 °F 51% 30.04 in 10.0 mi SW 11.5 mph - N/A   Clear
11:53 AM 89.1 °F 91.0 °F 64.9 °F 45% 30.04 in 10.0 mi SW 12.7 mph 21.9 mph N/A   Clear
12:53 PM 90.0 °F 91.7 °F 64.9 °F 43% 30.03 in 10.0 mi SSW 16.1 mph - N/A   Partly Cloudy
1:53 PM 91.0 °F 92.6 °F 64.0 °F 41% 30.02 in 10.0 mi SSW 16.1 mph 23.0 mph N/A   Scattered Clouds
2:53 PM 93.0 °F 94.2 °F 63.0 °F 37% 30.00 in 10.0 mi SW 13.8 mph 24.2 mph N/A   Scattered Clouds
3:53 PM 93.0 °F 93.8 °F 62.1 °F 36% 29.99 in 10.0 mi SW 12.7 mph 21.9 mph N/A   Partly Cloudy
4:53 PM 91.0 °F 91.9 °F 63.0 °F 39% 29.98 in 10.0 mi South 12.7 mph 20.7 mph N/A   Scattered Clouds
5:53 PM 90.0 °F 90.6 °F 63.0 °F 40% 29.98 in 10.0 mi SSW 11.5 mph 19.6 mph N/A   Partly Cloudy
6:53 PM 88.0 °F 88.7 °F 63.0 °F 43% 29.98 in 10.0 mi SSW 9.2 mph - N/A   Clear
7:53 PM 82.9 °F 84.4 °F 64.0 °F 53% 30.00 in 10.0 mi South 5.8 mph - N/A   Clear
8:53 PM 79.0 °F - 64.0 °F 60% 30.01 in 10.0 mi South 6.9 mph - N/A   Clear
9:53 PM 77.0 °F - 63.0 °F 62% 30.04 in 10.0 mi South 3.5 mph - N/A   Clear
10:53 PM 75.0 °F - 62.1 °F 64% 30.05 in 10.0 mi South 3.5 mph - N/A   Clear
11:53 PM 73.0 °F - 62.1 °F 68% 30.05 in 10.0 mi South 3.5 mph - N/A   Clear